Time,TemperatureF,DewpointF,PressureIn,WindDirection,WindDirectionDegrees,WindSpeedMPH,WindSpeedGustMPH,Humidity,HourlyPrecipIn,Conditions,Clouds,dailyrainin,SoftwareType,DateUTC
2013-01-11 00:01:00,37.0,36.5,29.61,SSE,167,0.0,2.0,98,0.00,,,0.00,WeatherCatV1.11B39,2013-01-11 06:01:00,
2013-01-11 00:06:00,37.2,36.7,29.61,SSE,167,2.0,2.0,98,0.00,,,0.00,WeatherCatV1.11B39,2013-01-11 06:06:00,
2013-01-11 00:11:00,37.2,36.7,29.61,SSE,165,1.0,2.0,98,0.00,,,0.00,WeatherCatV1.11B39,2013-01-11 06:11:00,
2013-01-11 00:16:00,37.2,36.7,29.60,SSE,166,3.0,4.0,98,0.00,,,0.00,WeatherCatV1.11B39,2013-01-11 06:16:00,
2013-01-11 00:21:00,37.2,36.7,29.60,SSE,166,3.0,4.0,98,0.00,,,0.00,WeatherCatV1.11B39,2013-01-11 06:21:00,
2013-01-11 00:26:00,37.2,36.7,29.60,SSE,165,3.0,5.0,98,0.00,,,0.00,WeatherCatV1.11B39,2013-01-11 06:26:00,
2013-01-11 00:31:00,37.3,36.8,29.60,SSE,166,1.0,2.0,98,0.00,,,0.00,WeatherCatV1.11B39,2013-01-11 06:31:00,
2013-01-11 00:36:00,37.3,36.8,29.60,SSE,166,0.0,2.0,98,0.00,,,0.00,WeatherCatV1.11B39,2013-01-11 06:36:00,
2013-01-11 00:41:00,37.3,36.8,29.60,SSE,165,0.0,0.0,98,0.00,,,0.00,WeatherCatV1.11B39,2013-01-11 06:41:00,
2013-01-11 00:46:00,37.3,36.8,29.59,SSE,165,0.0,0.0,98,0.00,,,0.00,WeatherCatV1.11B39,2013-01-11 06:46:00,
2013-01-11 00:51:00,37.3,36.8,29.59,SSE,165,0.0,1.0,98,0.00,,,0.00,WeatherCatV1.11B39,2013-01-11 06:51:00,
2013-01-11 00:56:00,37.3,36.8,29.59,SSE,165,0.0,3.0,98,0.00,,,0.00,WeatherCatV1.11B39,2013-01-11 06:56:00,
2013-01-11 01:01:00,37.3,36.8,29.57,SSE,165,0.0,1.0,98,0.00,,,0.00,WeatherCatV1.11B39,2013-01-11 07:01:00,
2013-01-11 01:06:00,37.2,36.7,29.57,SSE,165,0.0,1.0,98,0.00,,,0.00,WeatherCatV1.11B39,2013-01-11 07:06:00,
2013-01-11 01:11:00,37.0,36.5,29.57,SSE,165,0.0,0.0,98,0.00,,,0.00,WeatherCatV1.11B39,2013-01-11 07:11:00,
2013-01-11 01:16:00,37.0,36.5,29.56,SSE,165,0.0,0.0,98,0.00,,,0.00,WeatherCatV1.11B39,2013-01-11 07:16:00,
2013-01-11 01:21:00,37.0,36.5,29.56,SSE,165,0.0,0.0,98,0.00,,,0.00,WeatherCatV1.11B39,2013-01-11 07:21:00,
2013-01-11 01:26:00,36.9,36.4,29.56,SSE,165,0.0,1.0,98,0.00,,,0.00,WeatherCatV1.11B39,2013-01-11 07:26:00,
2013-01-11 01:31:00,36.9,36.4,29.57,SSE,165,0.0,2.0,98,0.00,,,0.00,WeatherCatV1.11B39,2013-01-11 07:31:00,
2013-01-11 01:36:00,36.9,36.4,29.57,SSE,165,1.0,1.0,98,0.00,,,0.00,WeatherCatV1.11B39,2013-01-11 07:36:00,
2013-01-11 01:41:00,36.9,36.4,29.57,SSE,165,0.0,0.0,98,0.00,,,0.00,WeatherCatV1.11B39,2013-01-11 07:41:00,
2013-01-11 01:46:00,36.9,36.4,29.56,SSE,165,0.0,0.0,98,0.00,,,0.00,WeatherCatV1.11B39,2013-01-11 07:46:00,
2013-01-11 01:51:00,36.9,36.4,29.56,SSE,165,0.0,0.0,98,0.00,,,0.00,WeatherCatV1.11B39,2013-01-11 07:51:00,
2013-01-11 01:56:00,36.8,36.3,29.56,SSE,165,1.0,1.0,98,0.00,,,0.00,WeatherCatV1.11B39,2013-01-11 07:56:00,
2013-01-11 02:01:00,36.6,36.1,29.56,SSE,165,0.0,0.0,98,0.00,,,0.00,WeatherCatV1.11B39,2013-01-11 08:01:00,
2013-01-11 02:06:00,36.6,36.1,29.56,SSE,165,0.0,0.0,98,0.00,,,0.00,WeatherCatV1.11B39,2013-01-11 08:06:00,
2013-01-11 02:11:00,36.5,36.0,29.56,SSE,165,0.0,0.0,98,0.00,,,0.00,WeatherCatV1.11B39,2013-01-11 08:11:00,
2013-01-11 02:16:00,36.6,36.1,29.56,SSE,165,0.0,2.0,98,0.00,,,0.00,WeatherCatV1.11B39,2013-01-11 08:16:00,
2013-01-11 02:21:00,36.8,36.3,29.56,SSE,165,0.0,3.0,98,0.00,,,0.00,WeatherCatV1.11B39,2013-01-11 08:21:00,
2013-01-11 02:26:00,36.9,36.4,29.56,SSE,165,5.0,5.0,98,0.00,,,0.00,WeatherCatV1.11B39,2013-01-11 08:26:00,
2013-01-11 02:31:00,36.9,36.4,29.55,SSE,165,1.0,4.0,98,0.00,,,0.00,WeatherCatV1.11B39,2013-01-11 08:31:00,
2013-01-11 02:36:00,36.9,36.4,29.55,SSE,165,0.0,1.0,98,0.00,,,0.00,WeatherCatV1.11B39,2013-01-11 08:36:00,
2013-01-11 02:41:00,36.9,36.4,29.55,SSE,165,4.0,7.0,98,0.00,,,0.00,WeatherCatV1.11B39,2013-01-11 08:41:00,
2013-01-11 02:46:00,37.0,36.5,29.56,SSE,165,0.0,2.0,98,0.00,,,0.00,WeatherCatV1.11B39,2013-01-11 08:46:00,
2013-01-11 02:51:00,37.0,36.5,29.56,SSE,168,7.0,7.0,98,0.00,,,0.00,WeatherCatV1.11B39,2013-01-11 08:51:00,
2013-01-11 02:56:00,37.0,36.5,29.56,SSE,168,0.0,3.0,98,0.00,,,0.00,WeatherCatV1.11B39,2013-01-11 08:56:00,
2013-01-11 03:01:00,36.9,36.4,29.54,SSE,167,0.0,5.0,98,0.00,,,0.00,WeatherCatV1.11B39,2013-01-11 09:01:00,
2013-01-11 03:06:00,36.8,36.3,29.54,SSE,167,2.0,4.0,98,0.00,,,0.00,WeatherCatV1.11B39,2013-01-11 09:06:00,
2013-01-11 03:11:00,36.8,36.3,29.54,SSE,168,0.0,5.0,98,0.00,,,0.00,WeatherCatV1.11B39,2013-01-11 09:11:00,
2013-01-11 03:16:00,36.6,36.1,29.54,SSE,168,1.0,4.0,98,0.00,,,0.00,WeatherCatV1.11B39,2013-01-11 09:16:00,
2013-01-11 03:21:00,36.6,36.1,29.54,SSE,167,5.0,5.0,98,0.00,,,0.00,WeatherCatV1.11B39,2013-01-11 09:21:00,
2013-01-11 03:26:00,36.5,36.0,29.54,SSE,167,2.0,6.0,98,0.00,,,0.00,WeatherCatV1.11B39,2013-01-11 09:26:00,
2013-01-11 03:31:00,36.5,36.0,29.53,SSE,167,2.0,4.0,98,0.00,,,0.00,WeatherCatV1.11B39,2013-01-11 09:31:00,
2013-01-11 03:36:00,36.5,36.0,29.53,South,177,1.0,6.0,98,0.00,,,0.00,WeatherCatV1.11B39,2013-01-11 09:36:00,
2013-01-11 03:41:00,36.3,35.8,29.53,SSE,167,0.0,6.0,98,0.00,,,0.00,WeatherCatV1.11B39,2013-01-11 09:41:00,
2013-01-11 03:46:00,36.3,35.8,29.53,South,171,0.0,6.0,98,0.00,,,0.00,WeatherCatV1.11B39,2013-01-11 09:46:00,
2013-01-11 03:51:00,36.3,35.8,29.53,South,170,0.0,2.0,98,0.00,,,0.00,WeatherCatV1.11B39,2013-01-11 09:51:00,
2013-01-11 03:56:00,36.2,35.7,29.53,SSE,167,2.0,5.0,98,0.00,,,0.00,WeatherCatV1.11B39,2013-01-11 09:56:00,
2013-01-11 04:01:00,36.2,35.7,29.53,SSE,167,0.0,3.0,98,0.00,,,0.00,WeatherCatV1.11B39,2013-01-11 10:01:00,
2013-01-11 04:06:00,36.2,35.7,29.53,South,170,2.0,4.0,98,0.00,,,0.00,WeatherCatV1.11B39,2013-01-11 10:06:00,
2013-01-11 04:11:00,36.0,35.5,29.53,SSE,168,2.0,6.0,98,0.00,,,0.00,WeatherCatV1.11B39,2013-01-11 10:11:00,
2013-01-11 04:16:00,36.0,35.5,29.53,SSE,167,1.0,5.0,98,0.00,,,0.00,WeatherCatV1.11B39,2013-01-11 10:16:00,
2013-01-11 04:21:00,36.0,35.5,29.53,South,169,0.0,3.0,98,0.00,,,0.00,WeatherCatV1.11B39,2013-01-11 10:21:00,
2013-01-11 04:26:00,36.0,35.5,29.53,SSE,163,2.0,4.0,98,0.00,,,0.00,WeatherCatV1.11B39,2013-01-11 10:26:00,
2013-01-11 04:31:00,36.0,35.7,29.52,South,183,3.0,6.0,99,0.00,,,0.00,WeatherCatV1.11B39,2013-01-11 10:31:00,
2013-01-11 04:36:00,36.2,35.9,29.52,South,181,3.0,3.0,99,0.00,,,0.00,WeatherCatV1.11B39,2013-01-11 10:36:00,
2013-01-11 04:41:00,36.2,35.9,29.52,South,182,1.0,9.0,99,0.00,,,0.00,WeatherCatV1.11B39,2013-01-11 10:41:00,
2013-01-11 04:46:00,36.3,36.0,29.52,South,180,3.0,4.0,99,0.00,,,0.00,WeatherCatV1.11B39,2013-01-11 10:46:00,
2013-01-11 04:51:00,36.3,36.0,29.52,South,187,4.0,6.0,99,0.00,,,0.00,WeatherCatV1.11B39,2013-01-11 10:51:00,
2013-01-11 04:56:00,36.5,36.2,29.52,South,186,1.0,5.0,99,0.00,,,0.00,WeatherCatV1.11B39,2013-01-11 10:56:00,
2013-01-11 05:01:00,36.5,36.2,29.51,South,184,5.0,6.0,99,0.00,,,0.00,WeatherCatV1.11B39,2013-01-11 11:01:00,
2013-01-11 05:06:00,36.5,36.2,29.51,South,182,0.0,1.0,99,0.00,,,0.00,WeatherCatV1.11B39,2013-01-11 11:06:00,
2013-01-11 05:11:00,36.5,36.2,29.51,South,182,0.0,1.0,99,0.00,,,0.00,WeatherCatV1.11B39,2013-01-11 11:11:00,
2013-01-11 05:16:00,36.6,36.3,29.50,South,182,2.0,4.0,99,0.00,,,0.00,WeatherCatV1.11B39,2013-01-11 11:16:00,
2013-01-11 05:21:00,36.6,36.3,29.50,South,182,2.0,4.0,99,0.00,,,0.00,WeatherCatV1.11B39,2013-01-11 11:21:00,
2013-01-11 05:26:00,36.6,36.3,29.50,South,169,5.0,5.0,99,0.00,,,0.00,WeatherCatV1.11B39,2013-01-11 11:26:00,
2013-01-11 05:31:00,36.6,36.3,29.50,South,169,0.0,2.0,99,0.00,,,0.00,WeatherCatV1.11B39,2013-01-11 11:31:00,
2013-01-11 05:36:00,36.8,36.5,29.50,South,169,0.0,4.0,99,0.00,,,0.00,WeatherCatV1.11B39,2013-01-11 11:36:00,
2013-01-11 05:41:00,36.9,36.6,29.50,SSE,163,1.0,6.0,99,0.00,,,0.00,WeatherCatV1.11B39,2013-01-11 11:41:00,
2013-01-11 05:46:00,37.0,36.7,29.50,SSE,163,1.0,4.0,99,0.00,,,0.00,WeatherCatV1.11B39,2013-01-11 11:46:00,
2013-01-11 05:51:00,37.0,36.7,29.50,SSE,161,0.0,2.0,99,0.00,,,0.00,WeatherCatV1.11B39,2013-01-11 11:51:00,
2013-01-11 05:56:00,37.2,36.9,29.50,SSE,161,0.0,3.0,99,0.00,,,0.00,WeatherCatV1.11B39,2013-01-11 11:56:00,
2013-01-11 06:01:00,37.3,37.0,29.49,SSE,161,3.0,3.0,99,0.00,,,0.00,WeatherCatV1.11B39,2013-01-11 12:01:00,
2013-01-11 06:06:00,37.5,37.2,29.49,SSE,161,0.0,2.0,99,0.00,,,0.00,WeatherCatV1.11B39,2013-01-11 12:06:00,
2013-01-11 06:11:00,37.6,37.3,29.49,SSE,161,0.0,3.0,99,0.00,,,0.00,WeatherCatV1.11B39,2013-01-11 12:11:00,
2013-01-11 06:16:00,37.8,37.5,29.48,SSE,161,0.0,3.0,99,0.00,,,0.00,WeatherCatV1.11B39,2013-01-11 12:16:00,
2013-01-11 06:21:00,37.8,37.5,29.48,SSE,161,0.0,2.0,99,0.00,,,0.00,WeatherCatV1.11B39,2013-01-11 12:21:00,
2013-01-11 06:26:00,37.8,37.5,29.48,SSE,161,0.0,0.0,99,0.00,,,0.00,WeatherCatV1.11B39,2013-01-11 12:26:00,
2013-01-11 06:31:00,37.6,37.3,29.48,SSE,161,0.0,1.0,99,0.00,,,0.00,WeatherCatV1.11B39,2013-01-11 12:31:00,
2013-01-11 06:36:00,37.6,37.3,29.48,SSE,163,2.0,7.0,99,0.00,,,0.00,WeatherCatV1.11B39,2013-01-11 12:36:00,
2013-01-11 06:41:00,37.5,37.2,29.48,SSE,163,2.0,2.0,99,0.00,,,0.00,WeatherCatV1.11B39,2013-01-11 12:41:00,
2013-01-11 06:46:00,37.3,37.0,29.47,ESE,102,3.0,3.0,99,0.00,,,0.00,WeatherCatV1.11B39,2013-01-11 12:46:00,
2013-01-11 06:51:00,37.3,37.0,29.47,ESE,105,1.0,3.0,99,0.00,,,0.00,WeatherCatV1.11B39,2013-01-11 12:51:00,
2013-01-11 06:56:00,37.3,37.0,29.47,ESE,105,0.0,3.0,99,0.00,,,0.00,WeatherCatV1.11B39,2013-01-11 12:56:00,
2013-01-11 07:00:00,37.2,36.9,29.47,ESE,105,0.0,1.0,99,0.00,,,0.00,WeatherCatV1.11B39,2013-01-11 13:00:00,
2013-01-11 07:05:00,37.2,36.9,29.47,ESE,106,1.0,3.0,99,0.00,,,0.00,WeatherCatV1.11B39,2013-01-11 13:05:00,
2013-01-11 07:10:00,37.3,37.0,29.47,ESE,111,1.0,4.0,99,0.00,,,0.00,WeatherCatV1.11B39,2013-01-11 13:10:00,
2013-01-11 07:15:00,37.3,37.0,29.46,ESE,111,1.0,4.0,99,0.00,,,0.00,WeatherCatV1.11B39,2013-01-11 13:15:00,
2013-01-11 07:20:00,37.5,37.2,29.46,ESE,111,1.0,1.0,99,0.00,,,0.00,WeatherCatV1.11B39,2013-01-11 13:20:00,
2013-01-11 07:25:00,37.5,37.2,29.46,SSE,167,0.0,6.0,99,0.00,,,0.00,WeatherCatV1.11B39,2013-01-11 13:25:00,
2013-01-11 07:30:00,37.9,37.6,29.46,SSE,166,0.0,3.0,99,0.00,,,0.00,WeatherCatV1.11B39,2013-01-11 13:30:00,
2013-01-11 07:35:00,38.5,38.2,29.46,SSE,148,1.0,3.0,99,0.00,,,0.00,WeatherCatV1.11B39,2013-01-11 13:35:00,
2013-01-11 07:40:00,39.1,38.8,29.46,SSE,149,0.0,3.0,99,0.00,,,0.00,WeatherCatV1.11B39,2013-01-11 13:40:00,
2013-01-11 07:45:00,39.3,39.0,29.45,SSE,148,1.0,3.0,99,0.00,,,0.00,WeatherCatV1.11B39,2013-01-11 13:45:00,
2013-01-11 07:50:00,39.5,39.2,29.45,SSE,148,1.0,3.0,99,0.00,,,0.00,WeatherCatV1.11B39,2013-01-11 13:50:00,
2013-01-11 07:55:00,39.6,39.3,29.45,SSE,148,3.0,3.0,99,0.00,,,0.00,WeatherCatV1.11B39,2013-01-11 13:55:00,
2013-01-11 08:00:00,39.8,39.5,29.46,SE,140,1.0,4.0,99,0.00,,,0.00,WeatherCatV1.11B39,2013-01-11 14:00:00,
2013-01-11 08:05:00,40.1,39.8,29.46,SE,132,1.0,6.0,99,0.00,,,0.00,WeatherCatV1.11B39,2013-01-11 14:05:00,
2013-01-11 08:10:00,40.2,39.9,29.46,SE,132,0.0,2.0,99,0.00,,,0.00,WeatherCatV1.11B39,2013-01-11 14:10:00,
2013-01-11 08:15:00,40.2,39.9,29.44,SE,140,2.0,5.0,99,0.00,,,0.00,WeatherCatV1.11B39,2013-01-11 14:15:00,
2013-01-11 08:20:00,40.8,40.8,29.44,SE,145,4.0,4.0,100,0.00,,,0.00,WeatherCatV1.11B39,2013-01-11 14:20:00,
2013-01-11 08:25:00,41.5,41.5,29.44,SSE,151,2.0,12.0,100,0.00,,,0.00,WeatherCatV1.11B39,2013-01-11 14:25:00,
2013-01-11 08:30:00,41.9,41.9,29.44,ESE,123,3.0,4.0,100,0.00,,,0.00,WeatherCatV1.11B39,2013-01-11 14:30:00,
2013-01-11 08:35:00,42.1,42.1,29.44,SSE,163,4.0,10.0,100,0.00,,,0.00,WeatherCatV1.11B39,2013-01-11 14:35:00,
2013-01-11 08:40:00,42.2,42.2,29.44,SSE,165,1.0,10.0,100,0.00,,,0.00,WeatherCatV1.11B39,2013-01-11 14:40:00,
2013-01-11 08:45:00,42.3,42.3,29.44,SSE,167,2.0,11.0,100,0.00,,,0.00,WeatherCatV1.11B39,2013-01-11 14:45:00,
2013-01-11 08:50:00,42.5,42.5,29.44,South,171,2.0,7.0,100,0.00,,,0.00,WeatherCatV1.11B39,2013-01-11 14:50:00,
2013-01-11 08:55:00,42.8,42.8,29.44,SSE,162,6.0,6.0,100,0.00,,,0.00,WeatherCatV1.11B39,2013-01-11 14:55:00,
2013-01-11 09:00:00,42.9,42.9,29.42,SE,136,2.0,4.0,100,0.00,,,0.00,WeatherCatV1.11B39,2013-01-11 15:00:00,
2013-01-11 09:05:00,42.9,42.9,29.42,South,173,4.0,6.0,100,0.00,,,0.00,WeatherCatV1.11B39,2013-01-11 15:05:00,
2013-01-11 09:10:00,43.1,43.1,29.42,SSE,157,2.0,14.0,100,0.00,,,0.00,WeatherCatV1.11B39,2013-01-11 15:10:00,
2013-01-11 09:15:00,43.2,43.2,29.42,SSE,160,4.0,6.0,100,0.00,,,0.00,WeatherCatV1.11B39,2013-01-11 15:15:00,
2013-01-11 09:20:00,43.2,43.2,29.42,SSE,167,5.0,11.0,100,0.00,,,0.00,WeatherCatV1.11B39,2013-01-11 15:20:00,
2013-01-11 09:25:00,43.2,43.2,29.42,South,171,9.0,9.0,100,0.00,,,0.00,WeatherCatV1.11B39,2013-01-11 15:25:00,
2013-01-11 09:30:00,43.2,43.2,29.42,SSE,147,3.0,10.0,100,0.00,,,0.00,WeatherCatV1.11B39,2013-01-11 15:30:00,
2013-01-11 09:35:00,43.3,43.3,29.42,South,181,2.0,11.0,100,0.00,,,0.00,WeatherCatV1.11B39,2013-01-11 15:35:00,
2013-01-11 09:40:00,43.3,43.3,29.42,South,188,5.0,6.0,100,0.00,,,0.00,WeatherCatV1.11B39,2013-01-11 15:40:00,
2013-01-11 09:45:00,43.3,43.3,29.43,SSW,198,2.0,7.0,100,0.00,,,0.00,WeatherCatV1.11B39,2013-01-11 15:45:00,
2013-01-11 09:50:00,43.5,43.5,29.43,SSE,167,2.0,8.0,100,0.00,,,0.00,WeatherCatV1.11B39,2013-01-11 15:50:00,
2013-01-11 09:55:00,43.6,43.6,29.43,SSE,148,1.0,5.0,100,0.00,,,0.00,WeatherCatV1.11B39,2013-01-11 15:55:00,
2013-01-11 10:00:00,43.6,43.6,29.41,SSE,163,2.0,9.0,100,0.00,,,0.00,WeatherCatV1.11B39,2013-01-11 16:00:00,
2013-01-11 10:05:00,43.8,43.8,29.41,SSE,165,2.0,4.0,100,0.00,,,0.00,WeatherCatV1.11B39,2013-01-11 16:05:00,
2013-01-11 10:10:00,43.8,43.8,29.41,SSE,168,3.0,3.0,100,0.00,,,0.00,WeatherCatV1.11B39,2013-01-11 16:10:00,
2013-01-11 10:15:00,43.8,43.8,29.41,South,171,1.0,7.0,100,0.00,,,0.00,WeatherCatV1.11B39,2013-01-11 16:15:00,
2013-01-11 10:20:00,43.9,43.9,29.41,SSE,167,5.0,6.0,100,0.00,,,0.00,WeatherCatV1.11B39,2013-01-11 16:20:00,
2013-01-11 10:25:00,44.1,44.1,29.41,South,173,1.0,7.0,100,0.00,,,0.00,WeatherCatV1.11B39,2013-01-11 16:25:00,
2013-01-11 10:30:00,44.1,44.1,29.41,SE,144,2.0,5.0,100,0.00,,,0.00,WeatherCatV1.11B39,2013-01-11 16:30:00,
2013-01-11 10:35:00,44.2,44.2,29.41,SSE,157,0.0,3.0,100,0.00,,,0.00,WeatherCatV1.11B39,2013-01-11 16:35:00,
2013-01-11 10:40:00,44.3,44.3,29.41,SSE,161,2.0,6.0,100,0.00,,,0.00,WeatherCatV1.11B39,2013-01-11 16:40:00,
2013-01-11 10:45:00,44.5,44.5,29.39,SSE,165,2.0,4.0,100,0.00,,,0.00,WeatherCatV1.11B39,2013-01-11 16:45:00,
2013-01-11 10:50:00,44.6,44.6,29.39,SSE,165,5.0,5.0,100,0.00,,,0.00,WeatherCatV1.11B39,2013-01-11 16:50:00,
2013-01-11 10:55:00,44.6,44.6,29.39,SSE,154,4.0,7.0,100,0.00,,,0.00,WeatherCatV1.11B39,2013-01-11 16:55:00,
2013-01-11 11:00:00,44.8,44.8,29.38,South,173,2.0,10.0,100,0.00,,,0.00,WeatherCatV1.11B39,2013-01-11 17:00:00,
2013-01-11 11:05:00,45.1,45.1,29.38,SSE,155,5.0,7.0,100,0.00,,,0.00,WeatherCatV1.11B39,2013-01-11 17:05:00,
2013-01-11 11:10:00,45.2,45.2,29.38,SSE,159,1.0,8.0,100,0.00,,,0.00,WeatherCatV1.11B39,2013-01-11 17:10:00,
2013-01-11 11:15:00,45.4,45.4,29.38,South,170,12.0,12.0,100,0.00,,,0.00,WeatherCatV1.11B39,2013-01-11 17:15:00,
2013-01-11 11:20:00,45.5,45.5,29.38,South,171,3.0,8.0,100,0.00,,,0.00,WeatherCatV1.11B39,2013-01-11 17:20:00,
2013-01-11 11:25:00,45.8,45.8,29.38,SSE,163,5.0,13.0,100,0.00,,,0.00,WeatherCatV1.11B39,2013-01-11 17:25:00,
2013-01-11 11:30:00,46.0,46.0,29.37,South,178,0.0,6.0,100,0.00,,,0.00,WeatherCatV1.11B39,2013-01-11 17:30:00,
2013-01-11 11:35:00,46.2,46.2,29.37,SSW,193,6.0,13.0,100,0.00,,,0.00,WeatherCatV1.11B39,2013-01-11 17:35:00,
2013-01-11 11:40:00,46.4,46.4,29.37,SSE,162,5.0,10.0,100,0.00,,,0.00,WeatherCatV1.11B39,2013-01-11 17:40:00,
2013-01-11 11:45:00,46.5,46.5,29.35,SSE,162,3.0,10.0,100,0.00,,,0.00,WeatherCatV1.11B39,2013-01-11 17:45:00,
2013-01-11 11:50:00,46.5,46.5,29.35,South,170,3.0,6.0,100,0.00,,,0.00,WeatherCatV1.11B39,2013-01-11 17:50:00,
2013-01-11 11:55:00,46.7,46.7,29.35,South,177,1.0,13.0,100,0.00,,,0.00,WeatherCatV1.11B39,2013-01-11 17:55:00,
2013-01-11 12:00:00,46.8,46.5,29.35,South,189,12.0,14.0,99,0.00,,,0.00,WeatherCatV1.11B39,2013-01-11 18:00:00,
2013-01-11 12:05:00,46.8,46.5,29.35,SSE,161,11.0,14.0,99,0.00,,,0.00,WeatherCatV1.11B39,2013-01-11 18:05:00,
2013-01-11 12:10:00,46.8,46.5,29.35,SSE,159,3.0,12.0,99,0.00,,,0.00,WeatherCatV1.11B39,2013-01-11 18:10:00,
2013-01-11 12:15:00,47.0,46.7,29.34,SE,144,5.0,7.0,99,0.00,,,0.00,WeatherCatV1.11B39,2013-01-11 18:15:00,
2013-01-11 12:20:00,47.1,46.8,29.34,South,171,3.0,7.0,99,0.00,,,0.00,WeatherCatV1.11B39,2013-01-11 18:20:00,
2013-01-11 12:25:00,47.4,47.1,29.34,SSW,197,6.0,10.0,99,0.00,,,0.00,WeatherCatV1.11B39,2013-01-11 18:25:00,
2013-01-11 12:30:00,48.0,47.7,29.32,SSE,163,3.0,11.0,99,0.00,,,0.00,WeatherCatV1.11B39,2013-01-11 18:30:00,
2013-01-11 12:35:00,48.5,48.2,29.32,South,183,4.0,11.0,99,0.00,,,0.00,WeatherCatV1.11B39,2013-01-11 18:35:00,
2013-01-11 12:40:00,48.5,48.0,29.32,SSE,167,5.0,11.0,98,0.00,,,0.00,WeatherCatV1.11B39,2013-01-11 18:40:00,
2013-01-11 12:45:00,48.5,47.7,29.32,SSE,161,3.0,16.0,97,0.00,,,0.00,WeatherCatV1.11B39,2013-01-11 18:45:00,
2013-01-11 12:50:00,48.8,48.0,29.32,South,169,3.0,12.0,97,0.00,,,0.00,WeatherCatV1.11B39,2013-01-11 18:50:00,
2013-01-11 12:55:00,49.4,48.3,29.32,South,174,7.0,15.0,96,0.00,,,0.00,WeatherCatV1.11B39,2013-01-11 18:55:00,
2013-01-11 13:00:00,49.8,48.4,29.30,South,177,5.0,9.0,95,0.00,,,0.00,WeatherCatV1.11B39,2013-01-11 19:00:00,
2013-01-11 13:05:00,49.9,48.0,29.30,South,170,13.0,15.0,93,0.00,,,0.00,WeatherCatV1.11B39,2013-01-11 19:05:00,
2013-01-11 13:10:00,50.1,47.6,29.30,SSW,202,4.0,15.0,91,0.00,,,0.00,WeatherCatV1.11B39,2013-01-11 19:10:00,
2013-01-11 13:15:00,50.4,47.0,29.30,South,175,11.0,15.0,88,0.00,,,0.00,WeatherCatV1.11B39,2013-01-11 19:15:00,
2013-01-11 13:20:00,50.7,46.7,29.30,South,190,14.0,19.0,86,0.00,,,0.00,WeatherCatV1.11B39,2013-01-11 19:20:00,
2013-01-11 13:25:00,51.1,46.4,29.30,South,171,5.0,19.0,84,0.00,,,0.00,WeatherCatV1.11B39,2013-01-11 19:25:00,
2013-01-11 13:30:00,51.9,46.6,29.30,SSE,167,11.0,15.0,82,0.00,,,0.00,WeatherCatV1.11B39,2013-01-11 19:30:00,
2013-01-11 13:35:00,52.5,46.5,29.30,SSE,167,4.0,15.0,80,0.00,,,0.00,WeatherCatV1.11B39,2013-01-11 19:35:00,
2013-01-11 13:40:00,52.9,46.2,29.30,South,191,6.0,8.0,78,0.00,,,0.00,WeatherCatV1.11B39,2013-01-11 19:40:00,
2013-01-11 13:45:00,53.1,46.1,29.28,South,177,3.0,11.0,77,0.00,,,0.00,WeatherCatV1.11B39,2013-01-11 19:45:00,
2013-01-11 13:50:00,53.3,45.9,29.28,SSW,196,5.0,16.0,76,0.00,,,0.00,WeatherCatV1.11B39,2013-01-11 19:50:00,
2013-01-11 13:55:00,53.5,46.1,29.28,SSE,160,10.0,13.0,76,0.00,,,0.00,WeatherCatV1.11B39,2013-01-11 19:55:00,
2013-01-11 14:00:00,53.3,45.6,29.28,SE,136,3.0,12.0,75,0.00,,,0.00,WeatherCatV1.11B39,2013-01-11 20:00:00,
2013-01-11 14:05:00,53.2,45.5,29.28,SSE,149,2.0,10.0,75,0.00,,,0.00,WeatherCatV1.11B39,2013-01-11 20:05:00,
2013-01-11 14:10:00,53.5,45.4,29.28,SSE,163,5.0,15.0,74,0.00,,,0.00,WeatherCatV1.11B39,2013-01-11 20:10:00,
2013-01-11 14:15:00,53.6,45.2,29.29,SSE,168,2.0,6.0,73,0.00,,,0.00,WeatherCatV1.11B39,2013-01-11 20:15:00,
2013-01-11 14:20:00,53.9,45.4,29.29,SSE,165,13.0,14.0,73,0.00,,,0.00,WeatherCatV1.11B39,2013-01-11 20:20:00,
2013-01-11 14:25:00,54.1,45.3,29.29,SSE,162,12.0,12.0,72,0.00,,,0.00,WeatherCatV1.11B39,2013-01-11 20:25:00,
2013-01-11 14:30:00,54.2,45.4,29.28,SSW,211,6.0,12.0,72,0.00,,,0.00,WeatherCatV1.11B39,2013-01-11 20:30:00,
2013-01-11 14:35:00,54.2,45.4,29.28,SSE,162,5.0,13.0,72,0.00,,,0.00,WeatherCatV1.11B39,2013-01-11 20:35:00,
2013-01-11 14:40:00,54.1,45.6,29.28,South,172,2.0,15.0,73,0.00,,,0.00,WeatherCatV1.11B39,2013-01-11 20:40:00,
2013-01-11 14:45:00,54.4,46.3,29.30,SSE,158,4.0,12.0,74,0.00,,,0.00,WeatherCatV1.11B39,2013-01-11 20:45:00,
2013-01-11 14:50:00,54.5,46.4,29.30,SSW,193,6.0,9.0,74,0.00,,,0.00,WeatherCatV1.11B39,2013-01-11 20:50:00,
2013-01-11 14:55:00,54.4,46.3,29.30,South,174,9.0,10.0,74,0.00,,,0.00,WeatherCatV1.11B39,2013-01-11 20:55:00,
2013-01-11 15:00:00,54.4,46.3,29.28,SSE,156,6.0,6.0,74,0.00,,,0.00,WeatherCatV1.11B39,2013-01-11 21:00:00,
2013-01-11 15:05:00,53.9,45.8,29.28,South,169,2.0,9.0,74,0.00,,,0.00,WeatherCatV1.11B39,2013-01-11 21:05:00,
2013-01-11 15:10:00,53.5,45.8,29.28,SSE,163,5.0,12.0,75,0.00,,,0.00,WeatherCatV1.11B39,2013-01-11 21:10:00,
2013-01-11 15:15:00,53.2,45.8,29.28,SSE,159,5.0,7.0,76,0.00,,,0.00,WeatherCatV1.11B39,2013-01-11 21:15:00,
2013-01-11 15:20:00,52.8,45.4,29.28,South,190,3.0,10.0,76,0.00,,,0.00,WeatherCatV1.11B39,2013-01-11 21:20:00,
2013-01-11 15:25:00,52.6,45.3,29.28,South,179,4.0,11.0,76,0.00,,,0.00,WeatherCatV1.11B39,2013-01-11 21:25:00,
2013-01-11 15:30:00,52.6,44.9,29.29,South,190,10.0,13.0,75,0.00,,,0.00,WeatherCatV1.11B39,2013-01-11 21:30:00,
2013-01-11 15:35:00,52.5,44.5,29.29,South,171,5.0,10.0,74,0.00,,,0.00,WeatherCatV1.11B39,2013-01-11 21:35:00,
2013-01-11 15:40:00,52.5,44.1,29.29,South,182,3.0,9.0,73,0.00,,,0.00,WeatherCatV1.11B39,2013-01-11 21:40:00,
2013-01-11 15:45:00,52.5,44.1,29.29,South,171,0.0,10.0,73,0.00,,,0.00,WeatherCatV1.11B39,2013-01-11 21:45:00,
2013-01-11 15:50:00,52.3,44.3,29.29,SSE,149,4.0,8.0,74,0.00,,,0.00,WeatherCatV1.11B39,2013-01-11 21:50:00,
2013-01-11 15:55:00,52.2,44.2,29.29,SSE,163,11.0,11.0,74,0.00,,,0.00,WeatherCatV1.11B39,2013-01-11 21:55:00,
2013-01-11 16:00:00,52.2,43.8,29.28,South,173,5.0,12.0,73,0.00,,,0.00,WeatherCatV1.11B39,2013-01-11 22:00:00,
2013-01-11 16:05:00,52.0,43.6,29.28,South,188,10.0,12.0,73,0.00,,,0.00,WeatherCatV1.11B39,2013-01-11 22:05:00,
2013-01-11 16:10:00,51.9,43.2,29.28,South,184,4.0,17.0,72,0.00,,,0.00,WeatherCatV1.11B39,2013-01-11 22:10:00,
2013-01-11 16:15:00,51.7,43.0,29.28,South,179,12.0,12.0,72,0.00,,,0.00,WeatherCatV1.11B39,2013-01-11 22:15:00,
2013-01-11 16:20:00,51.7,43.0,29.28,SSE,154,12.0,15.0,72,0.00,,,0.00,WeatherCatV1.11B39,2013-01-11 22:20:00,
2013-01-11 16:25:00,51.7,43.0,29.28,SSW,194,6.0,15.0,72,0.00,,,0.00,WeatherCatV1.11B39,2013-01-11 22:25:00,
2013-01-11 16:30:00,51.6,42.9,29.28,SSE,154,4.0,15.0,72,0.00,,,0.00,WeatherCatV1.11B39,2013-01-11 22:30:00,
2013-01-11 16:35:00,51.6,42.9,29.28,SSW,193,10.0,17.0,72,0.00,,,0.00,WeatherCatV1.11B39,2013-01-11 22:35:00,
2013-01-11 16:40:00,51.4,42.7,29.28,South,181,3.0,12.0,72,0.00,,,0.00,WeatherCatV1.11B39,2013-01-11 22:40:00,
2013-01-11 16:45:00,51.4,42.7,29.28,SSW,195,2.0,13.0,72,0.00,,,0.00,WeatherCatV1.11B39,2013-01-11 22:45:00,
2013-01-11 16:50:00,51.3,42.6,29.28,SSE,167,11.0,17.0,72,0.00,,,0.00,WeatherCatV1.11B39,2013-01-11 22:50:00,
2013-01-11 16:55:00,51.3,42.6,29.28,South,179,11.0,15.0,72,0.00,,,0.00,WeatherCatV1.11B39,2013-01-11 22:55:00,
2013-01-11 17:00:00,51.1,42.4,29.29,SSE,159,6.0,15.0,72,0.00,,,0.00,WeatherCatV1.11B39,2013-01-11 23:00:00,
2013-01-11 17:05:00,51.0,42.7,29.29,SE,135,5.0,16.0,73,0.00,,,0.00,WeatherCatV1.11B39,2013-01-11 23:05:00,
2013-01-11 17:10:00,50.8,42.5,29.29,SSE,159,3.0,12.0,73,0.00,,,0.00,WeatherCatV1.11B39,2013-01-11 23:10:00,
2013-01-11 17:15:00,50.7,42.7,29.29,SSE,167,6.0,12.0,74,0.00,,,0.00,WeatherCatV1.11B39,2013-01-11 23:15:00,
2013-01-11 17:20:00,50.5,42.9,29.29,South,172,1.0,14.0,75,0.00,,,0.00,WeatherCatV1.11B39,2013-01-11 23:20:00,
2013-01-11 17:25:00,50.4,42.8,29.29,South,187,7.0,11.0,75,0.00,,,0.00,WeatherCatV1.11B39,2013-01-11 23:25:00,
2013-01-11 17:30:00,50.2,42.6,29.30,South,179,3.0,7.0,75,0.00,,,0.00,WeatherCatV1.11B39,2013-01-11 23:30:00,
2013-01-11 17:35:00,50.1,42.8,29.30,South,172,3.0,13.0,76,0.00,,,0.00,WeatherCatV1.11B39,2013-01-11 23:35:00,
2013-01-11 17:40:00,50.2,42.9,29.30,South,186,0.0,12.0,76,0.00,,,0.00,WeatherCatV1.11B39,2013-01-11 23:40:00,
2013-01-11 17:45:00,50.2,42.9,29.31,ESE,120,4.0,14.0,76,0.00,,,0.00,WeatherCatV1.11B39,2013-01-11 23:45:00,
2013-01-11 17:50:00,50.2,42.9,29.31,SSW,202,2.0,3.0,76,0.00,,,0.00,WeatherCatV1.11B39,2013-01-11 23:50:00,
2013-01-11 17:55:00,50.1,42.8,29.31,South,173,3.0,13.0,76,0.00,,,0.00,WeatherCatV1.11B39,2013-01-11 23:55:00,
2013-01-11 18:00:00,49.9,42.6,29.31,SSW,202,0.0,6.0,76,0.00,,,0.00,WeatherCatV1.11B39,2013-01-12 00:00:00,
2013-01-11 18:05:00,49.9,43.0,29.31,South,180,0.0,7.0,77,0.00,,,0.00,WeatherCatV1.11B39,2013-01-12 00:05:00,
2013-01-11 18:10:00,49.9,43.0,29.31,South,190,2.0,5.0,77,0.00,,,0.00,WeatherCatV1.11B39,2013-01-12 00:10:00,
2013-01-11 18:15:00,49.9,42.6,29.32,SSW,204,1.0,3.0,76,0.00,,,0.00,WeatherCatV1.11B39,2013-01-12 00:15:00,
2013-01-11 18:20:00,49.6,42.7,29.32,South,171,4.0,9.0,77,0.00,,,0.00,WeatherCatV1.11B39,2013-01-12 00:20:00,
2013-01-11 18:25:00,49.5,42.6,29.32,South,187,4.0,10.0,77,0.00,,,0.00,WeatherCatV1.11B39,2013-01-12 00:25:00,
2013-01-11 18:30:00,49.5,42.9,29.31,South,185,7.0,14.0,78,0.00,,,0.00,WeatherCatV1.11B39,2013-01-12 00:30:00,
2013-01-11 18:35:00,49.6,42.7,29.31,South,177,9.0,11.0,77,0.00,,,0.00,WeatherCatV1.11B39,2013-01-12 00:35:00,
2013-01-11 18:40:00,49.6,42.7,29.31,South,171,0.0,5.0,77,0.00,,,0.00,WeatherCatV1.11B39,2013-01-12 00:40:00,
2013-01-11 18:45:00,49.6,43.0,29.32,South,177,0.0,4.0,78,0.00,,,0.00,WeatherCatV1.11B39,2013-01-12 00:45:00,
2013-01-11 18:50:00,49.6,42.7,29.32,South,178,0.0,3.0,77,0.00,,,0.00,WeatherCatV1.11B39,2013-01-12 00:50:00,
2013-01-11 18:52:00,49.6,42.7,29.32,South,178,0.0,0.0,77,0.00,,,0.00,WeatherCatV1.11B39,2013-01-12 00:52:00,
2013-01-11 18:57:00,49.5,42.6,29.32,South,178,0.0,3.0,77,0.00,,,0.00,WeatherCatV1.11B39,2013-01-12 00:57:00,
2013-01-11 19:02:00,49.4,42.5,29.32,South,178,0.0,1.0,77,0.00,,,0.00,WeatherCatV1.11B39,2013-01-12 01:02:00,
2013-01-11 19:07:00,49.1,42.5,29.32,South,178,3.0,3.0,78,0.00,,,0.00,WeatherCatV1.11B39,2013-01-12 01:07:00,
2013-01-11 19:12:00,48.8,42.2,29.32,South,182,3.0,6.0,78,0.00,,,0.00,WeatherCatV1.11B39,2013-01-12 01:12:00,
2013-01-11 19:17:00,48.8,42.6,29.32,SSW,211,1.0,10.0,79,0.00,,,0.00,WeatherCatV1.11B39,2013-01-12 01:17:00,
2013-01-11 19:22:00,49.1,42.9,29.32,South,173,4.0,6.0,79,0.00,,,0.00,WeatherCatV1.11B39,2013-01-12 01:22:00,
2013-01-11 19:27:00,49.2,42.6,29.32,SSW,195,2.0,5.0,78,0.00,,,0.00,WeatherCatV1.11B39,2013-01-12 01:27:00,
2013-01-11 19:32:00,49.2,42.6,29.32,South,177,5.0,7.0,78,0.00,,,0.00,WeatherCatV1.11B39,2013-01-12 01:32:00,
2013-01-11 19:37:00,49.2,42.3,29.32,SSW,209,5.0,6.0,77,0.00,,,0.00,WeatherCatV1.11B39,2013-01-12 01:37:00,
2013-01-11 19:42:00,49.2,42.3,29.32,South,189,0.0,3.0,77,0.00,,,0.00,WeatherCatV1.11B39,2013-01-12 01:42:00,
2013-01-11 19:47:00,49.2,42.3,29.33,South,189,0.0,0.0,77,0.00,,,0.00,WeatherCatV1.11B39,2013-01-12 01:47:00,
2013-01-11 19:52:00,49.1,42.2,29.33,South,189,0.0,0.0,77,0.00,,,0.00,WeatherCatV1.11B39,2013-01-12 01:52:00,
2013-01-11 19:57:00,48.8,41.9,29.33,South,189,2.0,2.0,77,0.00,,,0.00,WeatherCatV1.11B39,2013-01-12 01:57:00,
2013-01-11 20:02:00,48.3,41.4,29.33,South,189,2.0,2.0,77,0.00,,,0.00,WeatherCatV1.11B39,2013-01-12 02:02:00,
2013-01-11 20:07:00,48.0,41.5,29.33,South,189,0.0,3.0,78,0.00,,,0.00,WeatherCatV1.11B39,2013-01-12 02:07:00,
2013-01-11 20:12:00,47.9,41.0,29.33,SSW,208,3.0,4.0,77,0.00,,,0.00,WeatherCatV1.11B39,2013-01-12 02:12:00,
2013-01-11 20:17:00,47.6,40.8,29.35,West,261,0.0,3.0,77,0.00,,,0.00,WeatherCatV1.11B39,2013-01-12 02:17:00,
2013-01-11 20:22:00,46.8,40.0,29.35,NW,317,3.0,5.0,77,0.00,,,0.00,WeatherCatV1.11B39,2013-01-12 02:22:00,
2013-01-11 20:27:00,45.4,39.3,29.35,NNW,334,5.0,10.0,79,0.00,,,0.00,WeatherCatV1.11B39,2013-01-12 02:27:00,
2013-01-11 20:32:00,44.2,39.1,29.37,NNW,344,6.0,9.0,82,0.00,,,0.00,WeatherCatV1.11B39,2013-01-12 02:32:00,
2013-01-11 20:37:00,43.5,38.7,29.37,NW,313,3.0,6.0,83,0.00,,,0.00,WeatherCatV1.11B39,2013-01-12 02:37:00,
2013-01-11 20:42:00,42.9,38.4,29.37,NW,312,0.0,1.0,84,0.00,,,0.00,WeatherCatV1.11B39,2013-01-12 02:42:00,
2013-01-11 20:47:00,42.5,38.3,29.37,NW,313,3.0,6.0,85,0.00,,,0.00,WeatherCatV1.11B39,2013-01-12 02:47:00,
2013-01-11 20:52:00,42.2,38.3,29.37,NW,324,4.0,7.0,86,0.00,,,0.00,WeatherCatV1.11B39,2013-01-12 02:52:00,
2013-01-11 20:57:00,41.8,37.9,29.37,West,274,3.0,5.0,86,0.00,,,0.00,WeatherCatV1.11B39,2013-01-12 02:57:00,
2013-01-11 21:02:00,41.3,37.7,29.39,WNW,300,4.0,4.0,87,0.00,,,0.00,WeatherCatV1.11B39,2013-01-12 03:02:00,
2013-01-11 21:07:00,40.5,36.6,29.39,WNW,294,10.0,16.0,86,0.00,,,0.00,WeatherCatV1.11B39,2013-01-12 03:07:00,
2013-01-11 21:12:00,39.1,35.3,29.39,WNW,297,3.0,13.0,86,0.00,,,0.00,WeatherCatV1.11B39,2013-01-12 03:12:00,
2013-01-11 21:17:00,37.8,34.0,29.41,West,277,3.0,9.0,86,0.00,,,0.00,WeatherCatV1.11B39,2013-01-12 03:17:00,
2013-01-11 21:22:00,36.8,33.0,29.41,NW,323,3.0,11.0,86,0.00,,,0.00,WeatherCatV1.11B39,2013-01-12 03:22:00,
2013-01-11 21:27:00,36.2,32.4,29.41,WNW,282,9.0,10.0,86,0.00,,,0.00,WeatherCatV1.11B39,2013-01-12 03:27:00,
2013-01-11 21:32:00,35.6,31.8,29.45,WNW,290,6.0,6.0,86,0.00,,,0.00,WeatherCatV1.11B39,2013-01-12 03:32:00,
2013-01-11 21:37:00,35.3,31.5,29.45,West,277,1.0,7.0,86,0.00,,,0.00,WeatherCatV1.11B39,2013-01-12 03:37:00,
2013-01-11 21:42:00,35.2,31.4,29.45,WNW,293,1.0,9.0,86,0.00,,,0.00,WeatherCatV1.11B39,2013-01-12 03:42:00,
2013-01-11 21:47:00,35.2,31.4,29.49,NW,304,0.0,7.0,86,0.00,,,0.00,WeatherCatV1.11B39,2013-01-12 03:47:00,
2013-01-11 21:52:00,35.2,31.4,29.49,West,271,1.0,6.0,86,0.00,,,0.00,WeatherCatV1.11B39,2013-01-12 03:52:00,
2013-01-11 21:57:00,35.0,31.2,29.49,West,278,2.0,4.0,86,0.00,,,0.00,WeatherCatV1.11B39,2013-01-12 03:57:00,
2013-01-11 22:02:00,34.7,30.7,29.50,West,271,3.0,6.0,85,0.00,,,0.00,WeatherCatV1.11B39,2013-01-12 04:02:00,
2013-01-11 22:07:00,34.6,30.6,29.50,West,259,4.0,6.0,85,0.00,,,0.00,WeatherCatV1.11B39,2013-01-12 04:07:00,
2013-01-11 22:12:00,34.6,30.6,29.50,West,266,2.0,7.0,85,0.00,,,0.00,WeatherCatV1.11B39,2013-01-12 04:12:00,
2013-01-11 22:17:00,34.3,30.0,29.53,WNW,284,3.0,10.0,84,0.00,,,0.00,WeatherCatV1.11B39,2013-01-12 04:17:00,
2013-01-11 22:22:00,34.1,29.8,29.53,West,265,2.0,11.0,84,0.00,,,0.00,WeatherCatV1.11B39,2013-01-12 04:22:00,
2013-01-11 22:27:00,33.8,29.2,29.53,WSW,258,4.0,12.0,83,0.00,,,0.00,WeatherCatV1.11B39,2013-01-12 04:27:00,
2013-01-11 22:32:00,33.5,28.9,29.54,West,270,3.0,9.0,83,0.00,,,0.00,WeatherCatV1.11B39,2013-01-12 04:32:00,
2013-01-11 22:37:00,33.2,28.6,29.54,West,267,13.0,15.0,83,0.00,,,0.00,WeatherCatV1.11B39,2013-01-12 04:37:00,
2013-01-11 22:42:00,32.8,28.2,29.54,WSW,242,3.0,15.0,83,0.00,,,0.00,WeatherCatV1.11B39,2013-01-12 04:42:00,
2013-01-11 22:47:00,32.4,27.5,29.58,West,278,16.0,16.0,82,0.00,,,0.00,WeatherCatV1.11B39,2013-01-12 04:47:00,
2013-01-11 22:52:00,32.2,27.0,29.58,WNW,290,9.0,15.0,81,0.00,,,0.00,WeatherCatV1.11B39,2013-01-12 04:52:00,
2013-01-11 22:57:00,31.9,27.0,29.58,West,267,3.0,5.0,82,0.00,,,0.00,WeatherCatV1.11B39,2013-01-12 04:57:00,
2013-01-11 23:00:00,31.9,27.0,29.57,West,277,0.0,7.0,82,0.00,,,0.00,WeatherCatV1.11B39,2013-01-12 05:00:00,
2013-01-11 23:05:00,31.6,27.0,29.57,West,270,4.0,7.0,83,0.00,,,0.00,WeatherCatV1.11B39,2013-01-12 05:05:00,
2013-01-11 23:10:00,31.3,26.7,29.57,West,267,7.0,13.0,83,0.00,,,0.00,WeatherCatV1.11B39,2013-01-12 05:10:00,
2013-01-11 23:15:00,30.9,26.1,29.59,West,263,9.0,13.0,82,0.00,,,0.00,WeatherCatV1.11B39,2013-01-12 05:15:00,
2013-01-11 23:20:00,30.6,25.2,29.59,WNW,293,5.0,10.0,80,0.00,,,0.00,WeatherCatV1.11B39,2013-01-12 05:20:00,
2013-01-11 23:25:00,30.3,24.3,29.59,West,276,1.0,12.0,78,0.00,,,0.00,WeatherCatV1.11B39,2013-01-12 05:25:00,
2013-01-11 23:30:00,30.0,23.1,29.62,WSW,253,3.0,11.0,75,0.00,,,0.00,WeatherCatV1.11B39,2013-01-12 05:30:00,
2013-01-11 23:35:00,29.8,22.9,29.62,West,267,4.0,11.0,75,0.00,,,0.00,WeatherCatV1.11B39,2013-01-12 05:35:00,
2013-01-11 23:40:00,29.5,21.9,29.62,WNW,282,8.0,12.0,73,0.00,,,0.00,WeatherCatV1.11B39,2013-01-12 05:40:00,
2013-01-11 23:45:00,29.1,21.2,29.64,West,278,7.0,15.0,72,0.00,,,0.00,WeatherCatV1.11B39,2013-01-12 05:45:00,
2013-01-11 23:50:00,28.8,19.9,29.64,WNW,284,6.0,15.0,69,0.00,,,0.00,WeatherCatV1.11B39,2013-01-12 05:50:00,
2013-01-11 23:55:00,28.5,19.3,29.64,NW,325,8.0,14.0,68,0.00,,,0.00,WeatherCatV1.11B39,2013-01-12 05:55:00,